Regional Weather Roundup
Issued by NWS

Home | Current Version | Previous Version | Text Only | Print | Product List | Glossary Off
Versions: 1 2 3 4 5 6 7 8 9 10 11 12 13 14 15 16 17 18 19 20 21 22 23 24 25 26 27 28 29 30 31 32 33 34 35 36 37 38 39 40 41 42 43 44 45 46 47 48 49 50

000
ASUS45 KCYS 240010
RWRWY

WYOMING REGIONAL WEATHER ROUNDUP
NATIONAL WEATHER SERVICE CHEYENNE WY
600 PM MDT WED JUL 23 2014

NOTE:  "FAIR" INDICATES FEW OR NO CLOUDS BELOW 12,000 FEET
WITH NO SIGNIFICANT WEATHER AND/OR OBSTRUCTIONS TO VISIBILITY.

WYZ001-240100-
YELLOWSTONE NATIONAL PARK

CITY           SKY/WX    TMP DP  RH WIND       PRES   REMARKS
LK YELLOWSTONE   N/A     80  35  19 MISG      30.34F
6HR MIN TEMP:  75; 6HR MAX TEMP:  80;

W YELLOWSTONE  NOT AVBL

$$
WYZ002>013-054>058-071-098>099-240100-
NORTHERN WYOMING

CITY           SKY/WX    TMP DP  RH WIND       PRES   REMARKS
JACKSON        SUNNY     90  30  12 SW15      30.19F
CODY           NOT AVBL
GREYBULL       MOSUNNY  101  35  10 E8        29.92F HX  95
6HR MIN TEMP:  86; 6HR MAX TEMP: 103;

WORLAND        MOSUNNY  102  36  10 SW15      29.94F HX  96
6HR MIN TEMP:  86; 6HR MAX TEMP: 104;

SHERIDAN       PTSUNNY   91  65  41 CALM      29.97F HX  93
6HR MIN TEMP:  83; 6HR MAX TEMP:  97;

BUFFALO        MOSUNNY   97  34  11 SW6       30.05F HX  91
6HR MIN TEMP:  84; 6HR MAX TEMP: 100;

GILLETTE       MOSUNNY   93  57  29 SE21G28   30.03F HX  91
6HR MIN TEMP:  83; 6HR MAX TEMP:  94;

HULETT         FAIR      88  57  35 MISG      30.08
NEWCASTLE      FAIR      88  48  25 SE22      30.09

$$
WYZ014>020-022>026-101>103-240100-
CENTRAL WYOMING

CITY           SKY/WX    TMP DP  RH WIND       PRES   REMARKS
BIG PINEY      MOSUNNY   89  33  13 W10       30.26F
6HR MIN TEMP:  83; 6HR MAX TEMP:  92;

PINEDALE       PTCLDY    88  32  13 W8        30.26F
DUBOIS         FAIR      86  28  12 SW12G25   30.25S
LANDER         PTSUNNY   87  38  17 S37G48    30.12R
6HR MIN TEMP:  80; 6HR MAX TEMP:  99;

RIVERTON       MOSUNNY   95  35  12 S9        30.09F HX  90
6HR MIN TEMP:  80; 6HR MAX TEMP:  98;

CASPER         MOSUNNY   94  43  17 SE12      30.07F HX  90
6HR MIN TEMP:  84; 6HR MAX TEMP: 100;

DOUGLAS        PTSUNNY   93  46  19 SE18G26   30.10F
6HR MIN TEMP:  81; 6HR MAX TEMP:  95;


$$
WYZ021-027>030-104>119-240100-
SOUTHERN WYOMING

CITY           SKY/WX    TMP DP  RH WIND       PRES   REMARKS
EVANSTON       SUNNY     90  37  15 SW20G30   30.26F
6HR MIN TEMP:  83; 6HR MAX TEMP:  92;

KEMMERER       PTCLDY    88  30  12 W17G28    30.28S
FORT BRIDGER   MOCLDY    91  40  17 S17       30.29S
ROCK SPRINGS   PTSUNNY   90  31  12 NW13G22   30.24F
6HR MIN TEMP:  88; 6HR MAX TEMP:  94;

DIXON          FAIR      92  29  10 SW9       30.26F
RAWLINS        MOSUNNY   92  22   8 S13       30.25F
6HR MIN TEMP:  91; 6HR MAX TEMP:  96;

SARATOGA       FAIR      90  28  11 SW6G21    30.29F
LARAMIE        PTSUNNY   77  47  34 SE18      30.34F
6HR MIN TEMP:  76; 6HR MAX TEMP:  88; 6HR PCP: TRACE;

CHEYENNE       CLOUDY    77  63  61 S12G22    30.30F
6HR MIN TEMP:  74; 6HR MAX TEMP:  82;

TORRINGTON     MOSUNNY   86  66  51 S15G23    30.11F
6HR MIN TEMP:  80; 6HR MAX TEMP:  92;

PINE BLUFFS    FAIR      86  63  45 S13       30.23F

$$


USA.gov is the U.S. government's official web portal to all federal, state and local government web resources and services.